#timestamp,LO_Frequency,Hit,StdDev 
1650492015.6,286046998.0,N
1650492035.5,286046993.5,N
1650492055.3,286046994.0,N
1650492075.1,286046999.4,N
1650492095.9,286047001.1,N
1650492115.7,286047002.6,N
1650492135.5,286047007.6,N
1650492155.4,286047007.6,N
1650492175.2,286047005.9,N
1650492195.1,286047005.7,N
1650492196.0,286047005.7,N
1650492215.8,286046996.5,N
1650492235.6,286046997.1,N
1650492255.5,286047000.4,N
1650492275.3,286047001.1,N
1650492295.1,286047001.4,N
1650492315.9,286047000.3,N
1650492335.7,286047003.4,N
1650492355.6,286047004.6,N
1650492375.4,286047008.0,N
1650492395.2,286047008.2,N
1650492415.1,286047013.9,N
1650492416.0,286047013.9,N
1650492435.8,286047012.2,N
1650492455.6,286047009.3,N
1650492475.5,286047010.5,N
1650492495.3,286047012.9,N
1650492515.2,286047017.0,N
1650492535.9,286047009.8,N
1650492555.7,286047003.8,N
1650492575.6,286047001.6,N
1650492595.4,286047004.3,N
1650492615.2,286047007.9,N
1650492635.1,286047007.9,N
1650492636.0,286047007.9,N
1650492655.8,286047004.7,N
1650492675.7,286047005.7,N
1650492695.5,286047003.2,N
1650492715.3,286047004.9,N
1650492735.2,286047002.1,N
1650492755.0,286047001.6,N
1650492755.9,286047001.6,N
1650492775.8,286047007.6,N
1650492795.6,286047006.8,N
1650492815.4,286047008.6,N
1650492835.3,286047011.3,N
1650492855.1,286047007.2,N
1650492875.8,286047001.7,N
1650492895.7,286047007.2,N
1650492915.5,286047007.2,N
1650492935.4,286047006.9,N
1650492955.2,286047002.0,N
1650492975.0,286047004.7,N
1650492975.9,286047004.7,N
1650492995.8,286047006.5,N
1650493015.6,286047010.4,N
1650493035.4,286047011.0,Y
1650493055.3,286047004.9,P
1650493075.1,286047011.9,P
1650493095.9,286047011.9,P
1650493115.7,286047008.6,N
1650493135.5,286047009.7,Y
1650493185.4,286047001.9,E
1650493195.3,286046999.3,N
1650493215.2,286046988.8,P
1650493235.0,286046988.6,N
1650493235.9,286046988.6,N
1650493255.7,286046994.2,N
1650493275.6,286046992.1,N
1650493295.4,286046983.7,Y
1650493315.3,286046995.6,P
1650493335.1,286046995.8,N
1650493336.0,286046995.8,N
1650493355.8,286046995.0,Y
1650493375.7,286047000.5,P
1650493395.5,286046995.6,N
1650493415.4,286047000.7,N
1650493435.2,286047006.9,N
1650493455.0,286047010.5,N
1650493455.9,286047010.5,N
1650493475.8,286047011.9,N
1650493495.6,286047011.0,N
1650493515.4,286047008.0,N
1650493535.3,286047010.0,N
1650493555.1,286047006.2,N
1650493575.8,286047005.0,N
1650493595.7,286047010.3,N
1650493615.5,286047008.3,N
1650493635.4,286047007.7,N
1650493655.2,286047011.5,N
1650493675.0,286047009.7,N
1650493675.9,286047009.7,N
1650493695.8,286047005.1,N
1650493715.6,286047002.3,N
1650493735.4,286046996.8,N
1650493755.3,286047000.5,N
1650493775.1,286047000.0,N
1650493795.9,286046999.2,N
1650493815.7,286046995.8,N
1650493835.5,286046996.8,N
1650493855.4,286046998.2,N
1650493875.2,286046998.2,N
1650493895.0,286047006.8,N
1650493895.9,286047006.8,N
1650493915.8,286047007.9,N
1650493935.6,286047003.2,N
1650493955.5,286047005.1,N
1650493975.3,286047007.9,N
1650493995.1,286047010.8,N
1650494015.9,286047009.6,N
1650494035.7,286047009.0,N
1650494055.5,286047011.1,N
1650494075.4,286047009.3,N
1650494095.2,286047011.9,N
1650494115.1,286047011.3,N
1650494116.0,286047011.3,N
1650494135.8,286047014.8,N
1650494155.6,286047015.9,N
1650494205.5,286047020.2,E
1650494215.4,286047011.8,N
1650494235.2,286046997.8,P
1650494255.1,286046993.5,N
1650494256.0,286046993.5,N
1650494275.8,286046992.3,N
1650494295.6,286046994.5,N
1650494315.5,286046995.8,N
1650494335.3,286046995.4,N
1650494355.2,286046998.8,N
1650494375.9,286047000.2,N
1650494395.7,286047002.3,N
1650494415.6,286047001.8,N
1650494435.4,286047002.6,N
1650494455.2,286047000.5,N
1650494475.1,286047001.1,N
1650494476.0,286047001.1,N
1650494495.8,286046999.2,N
1650494515.7,286047001.4,N
1650494535.5,286047003.4,N
1650494555.3,286047001.7,N
1650494575.2,286046998.2,N
1650494595.9,286047002.2,N
1650494615.7,286047004.6,N
1650494635.6,286047004.6,N
1650494655.4,286047004.2,N
1650494675.2,286047003.8,N
1650494695.1,286047003.5,N
1650494696.0,286047003.5,N
1650494715.8,286047005.7,N
1650494735.7,286047006.8,N
1650494755.5,286047009.1,N
1650494775.3,286047009.2,N
1650494795.2,286047004.8,N
1650494815.0,286047004.2,N
1650494815.9,286047004.2,N
1650494835.8,286047004.1,N
1650494855.6,286047001.3,N
1650494875.4,286047005.1,N
1650494895.3,286047006.0,N
1650494915.1,286047005.2,N
1650494935.8,286047007.2,N
1650494955.7,286047005.7,N
1650494975.5,286047007.2,N
1650494995.4,286047001.8,N
1650495015.2,286046998.2,N
1650495035.0,286047001.1,N
1650495035.9,286047001.1,N
1650495055.8,286047001.1,N
1650495075.6,286046993.6,N
1650495095.4,286046999.0,N
1650495115.3,286047002.7,N
1650495135.1,286047000.6,N
1650495155.9,286047000.7,N
1650495175.7,286047001.1,N
1650495195.5,286047003.6,N
1650495215.4,286047001.4,N
1650495235.2,286047002.1,N
1650495255.0,286046999.3,N
1650495255.9,286046999.3,N
1650495275.8,286047002.8,N
1650495295.6,286047004.6,N
1650495315.4,286047006.7,N
1650495335.3,286047005.1,N
1650495355.1,286047001.7,N
1650495375.9,286047006.0,N
1650495395.7,286047003.4,N
1650495415.5,286047006.0,N
1650495435.4,286047003.3,N
1650495455.2,286047005.5,N
1650495475.0,286047005.6,N
1650495475.9,286047005.6,N
1650495495.8,286047004.9,N
1650495515.6,286047002.0,N
1650495535.5,286047002.0,N
1650495555.3,286046998.4,N
1650495575.1,286047003.9,N
1650495595.9,286047003.6,N
